Terug naar catalogus

ARIANE 1 R/B

ActiefSSO
NORAD 16615·ROCKET BODY·🇫🇷 France

Gelanceerd Feb 22, 1986 vanaf Guiana Space Centre

Loading…

Volgende Passages (komende 24 uur)

TLE

VersSource: Space-Track

Epoch: Sep 14, 2026, 00:49 UTC

1 16615U 86019C   26257.03435881  .00000149  00000-0  68588-4 0  9990
2 16615  98.2185 265.1865 0012762 113.9214 266.5677 14.33381991122619

Volg ARIANE 1 R/B in realtime met AllMySat

Download on the App Store